Time,TemperatureF,DewpointF,PressureIn,WindDirection,WindDirectionDegrees,WindSpeedMPH,WindSpeedGustMPH,Humidity,HourlyPrecipIn,Conditions,Clouds,dailyrainin,SolarRadiationWatts/m^2,SoftwareType,DateUTC
2013-07-26 00:05:00,53.7,52.0,30.03,SE,129,5.0,12.0,95,0.00,,,0.00,0,weatherlink.com 1.10,2013-07-26 07:05:00,
2013-07-26 00:20:00,53.6,53.0,30.03,SE,138,8.0,11.0,96,0.00,,,0.00,0,weatherlink.com 1.10,2013-07-26 07:20:00,
2013-07-26 00:35:00,53.4,52.0,30.03,ESE,119,4.0,13.0,96,0.00,,,0.00,0,weatherlink.com 1.10,2013-07-26 07:35:00,
2013-07-26 00:50:00,53.7,53.0,30.03,South,184,5.0,9.0,96,0.00,,,0.00,0,weatherlink.com 1.10,2013-07-26 07:50:00,
2013-07-26 01:05:00,53.6,53.0,30.03,SE,144,6.0,11.0,96,0.00,,,0.00,0,weatherlink.com 1.10,2013-07-26 08:05:00,
2013-07-26 01:20:00,53.7,53.0,30.02,SE,146,4.0,9.0,96,0.00,,,0.00,0,weatherlink.com 1.10,2013-07-26 08:20:00,
2013-07-26 01:35:00,53.7,53.0,30.03,SSW,193,5.0,8.0,96,0.00,,,0.00,0,weatherlink.com 1.10,2013-07-26 08:35:00,
2013-07-26 01:50:00,53.8,53.0,30.03,South,171,2.0,7.0,96,0.00,,,0.00,0,weatherlink.com 1.10,2013-07-26 08:50:00,
2013-07-26 02:05:00,53.8,53.0,30.03,South,183,2.0,8.0,96,0.00,,,0.00,0,weatherlink.com 1.10,2013-07-26 09:05:00,
2013-07-26 02:20:00,53.8,53.0,30.03,ESE,117,2.0,11.0,96,0.00,,,0.00,0,weatherlink.com 1.10,2013-07-26 09:20:00,
2013-07-26 02:35:00,53.5,52.0,30.03,SSW,203,6.0,8.0,96,0.00,,,0.00,0,weatherlink.com 1.10,2013-07-26 09:35:00,
2013-07-26 02:50:00,53.6,53.0,30.03,SE,146,3.0,6.0,96,0.00,,,0.00,0,weatherlink.com 1.10,2013-07-26 09:50:00,
2013-07-26 03:05:00,53.4,52.0,30.03,ESE,123,3.0,8.0,96,0.00,,,0.00,0,weatherlink.com 1.10,2013-07-26 10:05:00,
2013-07-26 03:20:00,53.3,52.0,30.03,SSE,166,2.0,7.0,96,0.00,,,0.00,0,weatherlink.com 1.10,2013-07-26 10:20:00,
2013-07-26 03:35:00,53.5,52.0,30.03,SE,142,2.0,6.0,96,0.00,,,0.00,0,weatherlink.com 1.10,2013-07-26 10:35:00,
2013-07-26 03:50:00,53.5,52.0,30.04,South,176,2.0,9.0,96,0.00,,,0.00,0,weatherlink.com 1.10,2013-07-26 10:50:00,
2013-07-26 04:05:00,53.2,52.0,30.04,South,171,2.0,7.0,96,0.00,,,0.00,0,weatherlink.com 1.10,2013-07-26 11:05:00,
2013-07-26 04:20:00,53.5,52.0,30.04,SE,140,4.0,9.0,96,0.00,,,0.00,0,weatherlink.com 1.10,2013-07-26 11:20:00,
2013-07-26 04:35:00,53.2,52.0,30.04,SSE,163,3.0,8.0,96,0.00,,,0.00,0,weatherlink.com 1.10,2013-07-26 11:35:00,
2013-07-26 04:50:00,53.1,52.0,30.04,South,178,2.0,9.0,95,0.00,,,0.00,0,weatherlink.com 1.10,2013-07-26 11:50:00,
2013-07-26 05:05:00,53.4,52.0,30.04,South,174,4.0,9.0,96,0.00,,,0.00,0,weatherlink.com 1.10,2013-07-26 12:05:00,
2013-07-26 05:20:00,53.3,52.0,30.05,SSW,193,4.0,7.0,95,0.00,,,0.00,0,weatherlink.com 1.10,2013-07-26 12:20:00,
2013-07-26 05:35:00,53.3,52.0,30.05,South,186,5.0,9.0,95,0.00,,,0.00,0,weatherlink.com 1.10,2013-07-26 12:35:00,
2013-07-26 05:50:00,53.4,52.0,30.06,SSE,159,4.0,10.0,95,0.00,,,0.00,0,weatherlink.com 1.10,2013-07-26 12:50:00,
2013-07-26 06:05:00,53.7,52.0,30.06,SSE,161,9.0,10.0,95,0.00,,,0.00,0,weatherlink.com 1.10,2013-07-26 13:05:00,
2013-07-26 06:20:00,53.9,53.0,30.07,SSE,165,7.0,8.0,95,0.00,,,0.00,0,weatherlink.com 1.10,2013-07-26 13:20:00,
2013-07-26 06:35:00,54.1,53.0,30.07,South,173,1.0,7.0,96,0.00,,,0.00,7,weatherlink.com 1.10,2013-07-26 13:35:00,
2013-07-26 06:50:00,54.3,53.0,30.07,South,171,3.0,9.0,96,0.00,,,0.00,16,weatherlink.com 1.10,2013-07-26 13:50:00,
2013-07-26 07:05:00,54.4,53.0,30.08,South,186,3.0,7.0,96,0.00,,,0.00,18,weatherlink.com 1.10,2013-07-26 14:05:00,
2013-07-26 07:20:00,54.2,53.0,30.08,SE,142,4.0,8.0,96,0.00,,,0.00,33,weatherlink.com 1.10,2013-07-26 14:20:00,
2013-07-26 07:35:00,54.4,53.0,30.09,SSE,153,1.0,7.0,96,0.00,,,0.00,37,weatherlink.com 1.10,2013-07-26 14:35:00,
2013-07-26 07:50:00,54.5,53.0,30.09,SSE,154,4.0,9.0,95,0.00,,,0.00,60,weatherlink.com 1.10,2013-07-26 14:50:00,
2013-07-26 08:06:00,54.8,53.0,30.09,SSE,155,3.0,8.0,95,0.00,,,0.00,77,weatherlink.com 1.10,2013-07-26 15:06:00,
2013-07-26 08:21:00,55.1,54.0,30.10,SSE,158,7.0,8.0,95,0.00,,,0.00,86,weatherlink.com 1.10,2013-07-26 15:21:00,
2013-07-26 08:36:00,55.2,54.0,30.10,SSW,196,3.0,6.0,95,0.00,,,0.00,93,weatherlink.com 1.10,2013-07-26 15:36:00,
2013-07-26 08:51:00,55.1,54.0,30.10,SE,144,2.0,8.0,94,0.00,,,0.00,114,weatherlink.com 1.10,2013-07-26 15:51:00,
2013-07-26 09:06:00,55.5,54.0,30.10,SSE,155,2.0,7.0,94,0.00,,,0.00,123,weatherlink.com 1.10,2013-07-26 16:06:00,
2013-07-26 09:21:00,55.8,54.0,30.11,SSE,154,5.0,10.0,93,0.00,,,0.00,142,weatherlink.com 1.10,2013-07-26 16:21:00,
2013-07-26 09:36:00,56.2,54.0,30.10,South,184,5.0,7.0,93,0.00,,,0.00,171,weatherlink.com 1.10,2013-07-26 16:36:00,
2013-07-26 09:51:00,56.4,54.0,30.10,SSW,207,3.0,8.0,92,0.00,,,0.00,241,weatherlink.com 1.10,2013-07-26 16:51:00,
2013-07-26 10:06:00,57.1,55.0,30.10,SE,140,7.0,7.0,91,0.00,,,0.00,294,weatherlink.com 1.10,2013-07-26 17:06:00,
2013-07-26 10:21:00,57.8,55.0,30.10,SE,145,5.0,10.0,90,0.00,,,0.00,258,weatherlink.com 1.10,2013-07-26 17:21:00,
2013-07-26 10:36:00,58.1,55.0,30.11,SW,226,2.0,7.0,89,0.00,,,0.00,429,weatherlink.com 1.10,2013-07-26 17:36:00,
2013-07-26 10:51:00,58.1,55.0,30.11,SSE,165,2.0,9.0,89,0.00,,,0.00,302,weatherlink.com 1.10,2013-07-26 17:51:00,
2013-07-26 11:21:00,60.1,56.0,30.10,SW,219,5.0,8.0,86,0.00,,,0.00,809,weatherlink.com 1.10,2013-07-26 18:21:00,
2013-07-26 11:36:00,60.1,56.0,30.10,SSW,208,3.0,9.0,86,0.00,,,0.00,613,weatherlink.com 1.10,2013-07-26 18:36:00,
2013-07-26 11:51:00,60.4,56.0,30.10,South,180,1.0,9.0,86,0.00,,,0.00,526,weatherlink.com 1.10,2013-07-26 18:51:00,
2013-07-26 12:06:00,60.9,56.0,30.10,SSW,211,4.0,11.0,84,0.00,,,0.00,661,weatherlink.com 1.10,2013-07-26 19:06:00,
2013-07-26 12:21:00,61.2,56.0,30.09,SW,229,5.0,8.0,84,0.00,,,0.00,603,weatherlink.com 1.10,2013-07-26 19:21:00,
2013-07-26 12:36:00,62.0,57.0,30.09,SSE,151,7.0,8.0,83,0.00,,,0.00,970,weatherlink.com 1.10,2013-07-26 19:36:00,
2013-07-26 12:51:00,62.4,57.0,30.08,SSE,163,4.0,10.0,81,0.00,,,0.00,960,weatherlink.com 1.10,2013-07-26 19:51:00,
2013-07-26 13:06:00,63.6,57.0,30.08,SE,140,5.0,9.0,79,0.00,,,0.00,967,weatherlink.com 1.10,2013-07-26 20:06:00,
2013-07-26 13:21:00,63.3,57.0,30.07,SE,144,2.0,9.0,80,0.00,,,0.00,970,weatherlink.com 1.10,2013-07-26 20:21:00,
2013-07-26 13:36:00,63.6,57.0,30.07,South,177,5.0,10.0,80,0.00,,,0.00,974,weatherlink.com 1.10,2013-07-26 20:36:00,
2013-07-26 13:51:00,63.6,57.0,30.07,SE,145,7.0,9.0,79,0.00,,,0.00,962,weatherlink.com 1.10,2013-07-26 20:51:00,
2013-07-26 14:06:00,63.1,57.0,30.07,SSE,154,3.0,11.0,80,0.00,,,0.00,951,weatherlink.com 1.10,2013-07-26 21:06:00,
2013-07-26 14:21:00,63.6,57.0,30.06,SE,138,6.0,10.0,79,0.00,,,0.00,940,weatherlink.com 1.10,2013-07-26 21:21:00,
2013-07-26 14:36:00,64.0,57.0,30.06,SE,144,4.0,11.0,78,0.00,,,0.00,925,weatherlink.com 1.10,2013-07-26 21:36:00,
2013-07-26 14:51:00,64.0,57.0,30.06,SE,137,4.0,10.0,79,0.00,,,0.00,904,weatherlink.com 1.10,2013-07-26 21:51:00,
2013-07-26 15:06:00,63.8,57.0,30.05,SSE,161,4.0,11.0,79,0.00,,,0.00,891,weatherlink.com 1.10,2013-07-26 22:06:00,
2013-07-26 15:21:00,63.1,57.0,30.05,South,178,3.0,13.0,80,0.00,,,0.00,823,weatherlink.com 1.10,2013-07-26 22:21:00,
2013-07-26 15:37:00,63.1,57.0,30.05,SSE,157,8.0,11.0,81,0.00,,,0.00,830,weatherlink.com 1.10,2013-07-26 22:37:00,
2013-07-26 15:52:00,63.2,57.0,30.05,SE,138,7.0,11.0,81,0.00,,,0.00,800,weatherlink.com 1.10,2013-07-26 22:52:00,
2013-07-26 16:06:00,61.7,56.0,30.05,SE,137,7.0,14.0,82,0.00,,,0.00,397,weatherlink.com 1.10,2013-07-26 23:06:00,
2013-07-26 16:21:00,59.7,56.0,30.04,ESE,112,16.0,17.0,87,0.00,,,0.00,448,weatherlink.com 1.10,2013-07-26 23:21:00,
2013-07-26 16:36:00,59.1,55.0,30.04,SSE,165,9.0,17.0,87,0.00,,,0.00,359,weatherlink.com 1.10,2013-07-26 23:36:00,
2013-07-26 16:52:00,58.6,55.0,30.04,SSE,153,7.0,18.0,89,0.00,,,0.00,288,weatherlink.com 1.10,2013-07-26 23:52:00,
2013-07-26 17:07:00,58.7,56.0,30.04,ESE,115,10.0,18.0,89,0.00,,,0.00,267,weatherlink.com 1.10,2013-07-27 00:07:00,
2013-07-26 17:21:00,58.8,56.0,30.04,South,175,9.0,15.0,89,0.00,,,0.00,193,weatherlink.com 1.10,2013-07-27 00:21:00,
2013-07-26 17:36:00,58.3,56.0,30.04,ESE,116,12.0,17.0,90,0.00,,,0.00,141,weatherlink.com 1.10,2013-07-27 00:36:00,
2013-07-26 17:51:00,57.8,55.0,30.04,South,169,7.0,17.0,91,0.00,,,0.00,139,weatherlink.com 1.10,2013-07-27 00:51:00,
2013-07-26 18:06:00,57.8,55.0,30.03,South,169,6.0,14.0,91,0.00,,,0.00,120,weatherlink.com 1.10,2013-07-27 01:06:00,
2013-07-26 18:22:00,57.3,55.0,30.03,South,171,8.0,16.0,92,0.00,,,0.00,116,weatherlink.com 1.10,2013-07-27 01:22:00,
2013-07-26 18:37:00,57.2,55.0,30.03,South,173,8.0,16.0,92,0.00,,,0.00,95,weatherlink.com 1.10,2013-07-27 01:37:00,
2013-07-26 18:52:00,56.9,55.0,30.03,ESE,115,12.0,14.0,92,0.00,,,0.00,62,weatherlink.com 1.10,2013-07-27 01:52:00,
2013-07-26 19:07:00,56.9,55.0,30.03,South,173,8.0,12.0,92,0.00,,,0.00,54,weatherlink.com 1.10,2013-07-27 02:07:00,
2013-07-26 19:22:00,56.6,55.0,30.02,ESE,121,12.0,13.0,93,0.00,,,0.00,33,weatherlink.com 1.10,2013-07-27 02:22:00,
2013-07-26 19:37:00,56.7,55.0,30.02,SSE,147,13.0,13.0,93,0.00,,,0.00,19,weatherlink.com 1.10,2013-07-27 02:37:00,
2013-07-26 19:52:00,56.3,54.0,30.02,SE,134,14.0,14.0,93,0.00,,,0.00,16,weatherlink.com 1.10,2013-07-27 02:52:00,
2013-07-26 20:07:00,56.0,54.0,30.03,South,172,4.0,12.0,94,0.00,,,0.00,7,weatherlink.com 1.10,2013-07-27 03:07:00,
2013-07-26 20:22:00,55.9,54.0,30.03,SE,143,6.0,12.0,94,0.00,,,0.00,0,weatherlink.com 1.10,2013-07-27 03:22:00,
2013-07-26 20:37:00,55.6,54.0,30.03,SSE,159,7.0,11.0,94,0.00,,,0.00,0,weatherlink.com 1.10,2013-07-27 03:37:00,
2013-07-26 20:52:00,55.5,54.0,30.03,SE,134,10.0,12.0,94,0.00,,,0.00,0,weatherlink.com 1.10,2013-07-27 03:52:00,
2013-07-26 21:07:00,55.3,54.0,30.03,South,178,5.0,14.0,95,0.00,,,0.00,0,weatherlink.com 1.10,2013-07-27 04:07:00,
2013-07-26 21:22:00,55.0,54.0,30.04,South,182,6.0,15.0,95,0.00,,,0.00,0,weatherlink.com 1.10,2013-07-27 04:22:00,
2013-07-26 21:37:00,54.9,54.0,30.04,SSE,150,9.0,14.0,95,0.00,,,0.00,0,weatherlink.com 1.10,2013-07-27 04:37:00,
2013-07-26 21:52:00,54.8,53.0,30.04,SE,138,6.0,14.0,95,0.00,,,0.00,0,weatherlink.com 1.10,2013-07-27 04:52:00,
2013-07-26 22:07:00,54.8,53.0,30.05,SSE,158,5.0,12.0,95,0.00,,,0.00,0,weatherlink.com 1.10,2013-07-27 05:07:00,
2013-07-26 22:22:00,55.0,54.0,30.05,SSE,155,5.0,11.0,95,0.00,,,0.00,0,weatherlink.com 1.10,2013-07-27 05:22:00,
2013-07-26 22:37:00,54.8,53.0,30.05,SSE,163,5.0,14.0,95,0.00,,,0.00,0,weatherlink.com 1.10,2013-07-27 05:37:00,
2013-07-26 22:52:00,54.6,53.0,30.05,SSE,152,4.0,9.0,95,0.00,,,0.00,0,weatherlink.com 1.10,2013-07-27 05:52:00,
2013-07-26 23:07:00,54.5,53.0,30.05,SE,142,3.0,9.0,95,0.00,,,0.00,0,weatherlink.com 1.10,2013-07-27 06:07:00,
2013-07-26 23:22:00,54.7,53.0,30.04,SSE,160,3.0,9.0,95,0.00,,,0.00,0,weatherlink.com 1.10,2013-07-27 06:22:00,
2013-07-26 23:37:00,54.4,53.0,30.05,SSE,153,5.0,10.0,95,0.00,,,0.00,0,weatherlink.com 1.10,2013-07-27 06:37:00,
2013-07-26 23:52:00,54.5,53.0,30.05,SSE,148,5.0,9.0,95,0.00,,,0.00,0,weatherlink.com 1.10,2013-07-27 06:52:00,